[[{"header":{"parameterUnit":"m.s-1","parameterCategory":1,"la1":30.2991,"la2":30.254,"lo1":-89.0895,"lo2":-89.0444,"dy":0.0017,"dx":0.0017,"nx":28,"ny":28,"refTime":"2024-09-30T03:00:00:Z","depth":0,"parameterNumber":2,"parameterNumberName":"U-component_of_WINDS"},"data":[0,0,0,0,0,0,0,0,0,0,0,0,0,0,0,0,0,0,0,0,0,0,0,0,0,0,0,0,0,0,0,0,0,0,0,0,0,0,0,0,0,0,0,0,0,0,0,0,0,0,0,0,0,0,0,0,0,0,-1.5826,-1.5826,0,-1.586,-1.586,-1.586,-1.59,-1.59,-1.5901,-1.5902,-1.5934,-1.5935,-1.5935,0,0,0,0,0,0,0,0,0,0,0,0,0,-1.5794,-1.5794,-1.5826,-1.5826,-1.5827,-1.5859,-1.586,-1.586,-1.59,-1.59,-1.5901,-1.5902,-1.5934,-1.5935,-1.5935,0,0,0,0,0,0,0,0,0,0,0,0,0,-1.5815,-1.5794,-1.5826,-1.585,-1.5853,-1.5859,-1.586,-1.5861,-1.59,-1.59,-1.5901,-1.5902,-1.5934,-1.5935,-1.5935,-1.592,0,0,-1.5936,-1.5937,0,0,0,0,0,0,0,0,-1.5814,-1.5816,-1.5846,-1.5849,-1.5851,-1.5876,-1.5861,-1.588,-1.5899,-1.5882,-1.5902,-1.5903,-1.5914,-1.5916,-1.5921,-1.5921,-1.5923,-1.5937,-1.5937,-1.5937,-1.5937,0,0,0,0,0,0,0,-1.5812,-1.5815,-1.5839,-1.5847,-1.585,-1.5859,-1.5863,-1.5865,-1.5892,-1.5883,-1.5886,-1.589,-1.5916,-1.592,-1.5922,-1.5923,-1.5937,-1.5937,-1.5937,-1.5937,-1.5913,-1.5912,0,0,0,0,0,0,-1.5808,-1.5814,-1.5838,-1.584,-1.5835,-1.5859,-1.5863,-1.5867,-1.5893,-1.5897,-1.5889,-1.5892,-1.5919,-1.5921,-1.5923,-1.5907,-1.5937,-1.5937,-1.5938,-1.5914,-1.5913,-1.5912,0,0,0,0,0,0,-1.5807,-1.5809,-1.5837,-1.5828,-1.5832,-1.5858,-1.5863,-1.5868,-1.5872,-1.5897,-1.5902,-1.5888,-1.592,-1.5922,-1.592,-1.5909,-1.5938,-1.5938,-1.5915,-1.5914,-1.5912,-1.5875,0,0,0,0,0,0,-1.5806,-1.5809,-1.5804,-1.5827,-1.5832,-1.5834,-1.5862,-1.5868,-1.5873,-1.5877,-1.5898,-1.5902,-1.5921,-1.592,-1.5921,-1.591,-1.5938,-1.5916,-1.5914,-1.5913,-1.5878,-1.5873,-1.5868,0,0,0,0,0,-1.5804,-1.5791,-1.5803,-1.5806,-1.5827,-1.5833,-1.5836,-1.5858,-1.5872,-1.5867,-1.5883,-1.5901,-1.591,-1.5919,-1.5921,-1.591,-1.5917,-1.5915,-1.5913,-1.588,-1.5874,-1.5869,0,0,0,0,0,0,-1.5765,-1.5795,-1.5808,-1.5803,-1.5815,-1.584,-1.5834,-1.5851,-1.5859,-1.5862,-1.5889,-1.5893,-1.5888,-1.5899,-1.5909,-1.5897,-1.5916,-1.5914,-1.589,-1.5885,-1.588,-1.5878,-1.5939,0,0,0,0,0,-1.5756,-1.5759,-1.5785,-1.5778,-1.5783,-1.5807,-1.5811,-1.5827,-1.5841,-1.5846,-1.5862,-1.5874,-1.588,-1.5883,-1.5889,-1.5879,-1.5884,-1.5872,-1.5868,-1.5864,-1.5862,-1.5858,-1.5853,-1.5905,-1.5905,-1.5905,0,0,-1.5737,-1.5754,-1.5754,-1.577,-1.5782,-1.5784,-1.5812,-1.5813,-1.5815,-1.5846,-1.5846,-1.5858,-1.5873,-1.5867,-1.5865,-1.5876,-1.5849,-1.5861,-1.5858,-1.5859,-1.5855,-1.5851,-1.5846,-1.5904,-1.5904,-1.5904,0,0,-1.5704,-1.5716,-1.5712,-1.5723,-1.574,-1.5757,-1.5755,-1.5777,-1.5787,-1.5787,-1.581,-1.5812,-1.5821,-1.5831,-1.5837,-1.5807,-1.5825,-1.5809,-1.5785,-1.5781,-1.5777,-1.5773,-1.5763,-1.5759,-1.5807,-1.5807,-1.5807,0,-1.5678,-1.5683,-1.5707,-1.5708,-1.5714,-1.5743,-1.5738,-1.5747,-1.5765,-1.5769,-1.578,-1.5792,-1.5804,-1.5801,-1.5794,-1.5798,-1.5797,-1.5807,-1.5775,-1.5772,-1.5769,-1.576,-1.5756,-1.5805,-1.5805,-1.5805,-1.5805,0,-1.5651,-1.5654,-1.5648,-1.5666,-1.5671,-1.5669,-1.5692,-1.5695,-1.571,-1.5725,-1.5724,-1.574,-1.575,-1.575,-1.5765,-1.5749,-1.5756,-1.5771,-1.5791,-1.5762,-1.5754,-1.575,-1.5802,-1.5802,-1.5803,-1.5803,0,0,-1.5594,-1.5625,-1.5623,-1.5631,-1.5652,-1.5655,-1.5654,-1.5664,-1.5666,-1.5677,-1.5677,-1.5684,-1.5698,-1.5705,-1.5721,-1.5717,-1.5693,-1.5733,-1.5733,-1.5725,-1.5677,-1.5666,-1.5661,-1.5704,-1.5703,-1.5703,-1.5676,0,-1.5566,-1.5566,-1.5588,-1.5582,-1.5586,-1.5612,-1.5611,-1.5624,-1.5637,-1.5642,-1.5656,-1.5661,-1.5679,-1.5684,-1.5681,-1.5696,-1.5683,-1.5698,-1.5704,-1.5704,-1.57,-1.5657,-1.5645,-1.5619,-1.5672,-1.5672,-1.5672,0,-1.5532,-1.5542,-1.5537,-1.5559,-1.5561,-1.5559,-1.5571,-1.5575,-1.5589,-1.5599,-1.5607,-1.5625,-1.5625,-1.5643,-1.5644,-1.5653,-1.5657,-1.5664,-1.5664,-1.5666,-1.5687,-1.5658,-1.5611,-1.5607,-1.5667,-1.5667,-1.5667,0,-1.5493,-1.5505,-1.5503,-1.551,-1.5534,-1.5533,-1.5543,-1.5558,-1.5563,-1.5572,-1.5576,-1.5585,-1.559,-1.5596,-1.5616,-1.5628,-1.5614,-1.5634,-1.5623,-1.5622,-1.5619,-1.5619,-1.5572,-1.562,-1.562,-1.562,-1.562,0,-1.5459,-1.5455,-1.5486,-1.5485,-1.5481,-1.5506,-1.5501,-1.5513,-1.5527,-1.5528,-1.5551,-1.5552,-1.5579,-1.5582,-1.5598,-1.5596,-1.5598,-1.5606,-1.561,-1.5604,-1.5603,-1.5607,-1.561,-1.5619,-1.5619,-1.5619,-1.562,0,-1.5414,-1.5435,-1.5435,-1.5459,-1.5464,-1.546,-1.548,-1.548,-1.5495,-1.5497,-1.5498,-1.5521,-1.5527,-1.5548,-1.5558,-1.5568,-1.5562,-1.5569,-1.5557,-1.556,-1.5547,-1.5548,-1.5502,-1.5497,-1.5547,-1.5546,-1.5546,0,-1.5392,-1.5389,-1.5412,-1.5416,-1.5425,-1.5429,-1.5435,-1.5458,-1.5463,-1.5479,-1.5477,-1.5484,-1.5492,-1.5499,-1.5517,-1.5525,-1.5533,-1.5516,-1.5535,-1.5529,-1.5534,-1.5534,-1.5534,-1.5513,-1.5512,-1.5511,-1.5511,0,-1.535,-1.536,-1.5367,-1.5378,-1.5384,-1.5393,-1.5403,-1.5404,-1.543,-1.5434,-1.5441,-1.5446,-1.5457,-1.5464,-1.5475,-1.5485,-1.5502,-1.5505,-1.5503,-1.5497,-1.5491,-1.5495,-1.5547,-1.5506,-1.5507,-1.5507,-1.5507,-1.5507,-1.5316,-1.5315,-1.5332,-1.5339,-1.5349,-1.5358,-1.536,-1.5375,-1.5381,-1.5392,-1.5405,-1.541,-1.5424,-1.544,-1.5449,-1.5452,-1.5462,-1.5459,-1.5458,-1.5457,-1.5454,-1.5489,-1.5454,-1.5454,-1.5455,-1.5455,-1.5455,0,-1.5276,-1.5288,-1.5294,-1.5308,-1.5314,-1.533,-1.5342,-1.5345,-1.535,-1.5361,-1.5368,-1.5376,-1.5383,-1.54,-1.5409,-1.5409,-1.5417,-1.541,-1.5411,-1.5413,-1.5445,-1.5446,-1.5403,-1.5403,-1.5403,-1.5403,-1.5404,-1.5404,-1.5256,-1.5256,-1.5268,-1.5273,-1.5284,-1.529,-1.5296,-1.5304,-1.5314,-1.5321,-1.5327,-1.5339,-1.5353,-1.5363,-1.537,-1.5375,-1.5377,-1.5368,-1.5376,-1.5406,-1.5411,-1.5415,-1.5417,-1.5368,-1.5368,-1.5344,-1.5343,-1.5343]},{"header":{"parameterUnit":"m.s-1","parameterCategory":1,"la1":30.2991,"la2":30.254,"lo1":-89.0895,"lo2":-89.0444,"dy":0.0017,"dx":0.0017,"nx":28,"ny":28,"refTime":"2024-09-30T03:00:00:Z","depth":0,"parameterNumber":3,"parameterNumberName":"V-component_of_WINDS"},"data":[0,0,0,0,0,0,0,0,0,0,0,0,0,0,0,0,0,0,0,0,0,0,0,0,0,0,0,0,0,0,0,0,0,0,0,0,0,0,0,0,0,0,0,0,0,0,0,0,0,0,0,0,0,0,0,0,0,0,-3.1364,-3.1363,0,-3.1334,-3.1334,-3.1333,-3.1294,-3.1293,-3.1292,-3.1292,-3.1259,-3.1259,-3.1259,0,0,0,0,0,0,0,0,0,0,0,0,0,-3.1385,-3.1385,-3.1364,-3.1363,-3.1363,-3.1334,-3.1334,-3.1333,-3.1294,-3.1293,-3.1292,-3.1291,-3.1259,-3.1259,-3.1258,0,0,0,0,0,0,0,0,0,0,0,0,0,-3.1368,-3.1385,-3.1364,-3.134,-3.1337,-3.1334,-3.1334,-3.1333,-3.1294,-3.1293,-3.1292,-3.1291,-3.1259,-3.1259,-3.1258,-3.1275,0,0,-3.1257,-3.1257,0,0,0,0,0,0,0,0,-3.1369,-3.1367,-3.1344,-3.1341,-3.1339,-3.1317,-3.1329,-3.1314,-3.1294,-3.131,-3.1292,-3.1291,-3.1279,-3.1277,-3.1273,-3.1274,-3.1273,-3.1257,-3.1257,-3.1257,-3.1257,0,0,0,0,0,0,0,-3.137,-3.1368,-3.1352,-3.1343,-3.134,-3.133,-3.1327,-3.1326,-3.13,-3.1309,-3.1306,-3.1303,-3.1277,-3.1274,-3.1272,-3.1272,-3.1257,-3.1257,-3.1257,-3.1256,-3.1287,-3.1288,0,0,0,0,0,0,-3.1375,-3.1369,-3.1353,-3.1351,-3.1352,-3.1331,-3.1327,-3.1325,-3.13,-3.1296,-3.1304,-3.1301,-3.1275,-3.1273,-3.1271,-3.129,-3.1257,-3.1256,-3.1256,-3.1286,-3.1287,-3.1288,0,0,0,0,0,0,-3.1376,-3.1374,-3.1354,-3.1359,-3.1356,-3.1331,-3.1329,-3.1325,-3.1321,-3.1297,-3.1292,-3.1305,-3.1274,-3.1271,-3.1275,-3.1289,-3.1256,-3.1256,-3.1285,-3.1286,-3.1288,-3.1329,0,0,0,0,0,0,-3.1377,-3.1374,-3.1381,-3.136,-3.1356,-3.1359,-3.133,-3.1325,-3.1321,-3.1317,-3.1296,-3.1292,-3.1273,-3.1276,-3.1275,-3.1288,-3.1256,-3.1283,-3.1285,-3.1287,-3.1326,-3.1332,-3.1336,0,0,0,0,0,-3.1377,-3.1393,-3.1381,-3.138,-3.1363,-3.136,-3.1358,-3.1336,-3.1322,-3.1328,-3.1313,-3.1293,-3.1287,-3.1277,-3.1275,-3.1288,-3.1282,-3.1285,-3.1287,-3.1324,-3.1331,-3.1336,0,0,0,0,0,0,-3.1415,-3.1389,-3.1377,-3.1386,-3.1376,-3.1353,-3.136,-3.1344,-3.1337,-3.1333,-3.1306,-3.1302,-3.131,-3.1299,-3.1287,-3.1304,-3.1282,-3.1284,-3.1311,-3.1317,-3.1322,-3.1324,-3.1255,0,0,0,0,0,-3.1424,-3.1424,-3.1402,-3.1412,-3.1408,-3.1385,-3.1383,-3.1367,-3.1355,-3.1351,-3.1335,-3.1324,-3.132,-3.1318,-3.1312,-3.1325,-3.132,-3.1333,-3.1338,-3.1342,-3.1344,-3.1351,-3.1357,-3.1296,-3.1296,-3.1296,0,0,-3.1443,-3.143,-3.1431,-3.1419,-3.1409,-3.141,-3.1382,-3.1383,-3.1383,-3.135,-3.1354,-3.1342,-3.1328,-3.1336,-3.1339,-3.1328,-3.136,-3.1345,-3.1349,-3.1348,-3.1354,-3.136,-3.1365,-3.1298,-3.1297,-3.1297,0,0,-3.1479,-3.1468,-3.1476,-3.1467,-3.1454,-3.1439,-3.1441,-3.1422,-3.1413,-3.1416,-3.1392,-3.1392,-3.1385,-3.1376,-3.1371,-3.1405,-3.1387,-3.1404,-3.1431,-3.1438,-3.1443,-3.1447,-3.146,-3.1465,-3.1406,-3.1406,-3.1407,0,-3.1504,-3.1504,-3.1482,-3.1485,-3.1481,-3.1453,-3.1462,-3.1454,-3.1439,-3.1436,-3.1424,-3.1416,-3.1404,-3.1411,-3.142,-3.1416,-3.1418,-3.1406,-3.1444,-3.1448,-3.1451,-3.1464,-3.1469,-3.1409,-3.1408,-3.1408,-3.1408,0,-3.1537,-3.1537,-3.1545,-3.1533,-3.153,-3.1535,-3.1514,-3.1513,-3.1499,-3.1485,-3.1489,-3.1475,-3.1467,-3.1467,-3.1452,-3.1472,-3.1466,-3.1449,-3.1426,-3.146,-3.1471,-3.1476,-3.1412,-3.1411,-3.141,-3.141,0,0,-3.1594,-3.1571,-3.1574,-3.1569,-3.1552,-3.1552,-3.1557,-3.155,-3.1551,-3.1541,-3.1545,-3.1541,-3.1526,-3.152,-3.1504,-3.151,-3.154,-3.1493,-3.1492,-3.1503,-3.1563,-3.1576,-3.1582,-3.1528,-3.1528,-3.1529,-3.1564,0,-3.1627,-3.1634,-3.1615,-3.1627,-3.1628,-3.1602,-3.1607,-3.1597,-3.1585,-3.1584,-3.157,-3.1568,-3.1548,-3.1544,-3.1549,-3.1535,-3.1552,-3.1532,-3.1531,-3.1531,-3.1536,-3.1587,-3.1601,-3.1635,-3.1568,-3.1569,-3.157,0,-3.1666,-3.166,-3.1673,-3.1657,-3.1657,-3.1661,-3.1654,-3.1653,-3.1642,-3.1633,-3.1628,-3.1609,-3.1613,-3.1592,-3.1597,-3.1585,-3.1583,-3.1576,-3.1577,-3.1576,-3.1553,-3.1589,-3.1645,-3.1651,-3.1576,-3.1575,-3.1575,0,-3.1708,-3.1703,-3.1711,-3.1707,-3.1688,-3.1692,-3.1684,-3.1672,-3.167,-3.1664,-3.1663,-3.1657,-3.1653,-3.1649,-3.163,-3.1616,-3.1638,-3.1615,-3.1631,-3.1632,-3.1637,-3.1637,-3.1695,-3.1635,-3.1635,-3.1635,-3.1635,0,-3.1747,-3.1756,-3.173,-3.1734,-3.1744,-3.1722,-3.1732,-3.1721,-3.1711,-3.1714,-3.1691,-3.1693,-3.1668,-3.1667,-3.1652,-3.166,-3.1658,-3.1651,-3.1647,-3.1654,-3.1655,-3.1653,-3.165,-3.1636,-3.1636,-3.1636,-3.1636,0,-3.1795,-3.1778,-3.1784,-3.1767,-3.1763,-3.1771,-3.1756,-3.1759,-3.1747,-3.175,-3.1749,-3.1729,-3.1728,-3.1709,-3.1703,-3.1693,-3.1707,-3.1698,-3.1711,-3.1708,-3.1726,-3.1725,-3.1785,-3.1792,-3.1727,-3.1728,-3.1728,0,-3.1821,-3.1828,-3.1812,-3.1812,-3.1806,-3.1807,-3.1805,-3.1784,-3.1782,-3.1771,-3.1777,-3.1774,-3.1771,-3.177,-3.1755,-3.1751,-3.1742,-3.1763,-3.1741,-3.1748,-3.1744,-3.1744,-3.1745,-3.1768,-3.1769,-3.1769,-3.177,0,-3.187,-3.1862,-3.186,-3.1856,-3.1855,-3.185,-3.1844,-3.1846,-3.1823,-3.1823,-3.1822,-3.182,-3.1815,-3.1813,-3.1806,-3.1798,-3.1781,-3.1777,-3.1781,-3.1788,-3.1796,-3.1793,-3.1724,-3.1776,-3.1775,-3.1775,-3.1775,-3.1774,-3.1909,-3.1914,-3.1904,-3.1903,-3.1897,-3.1893,-3.1896,-3.1884,-3.1883,-3.1878,-3.1866,-3.1867,-3.1857,-3.1847,-3.1841,-3.1842,-3.1831,-3.1836,-3.1837,-3.1839,-3.1843,-3.1795,-3.184,-3.184,-3.184,-3.184,-3.184,0,-3.1957,-3.195,-3.195,-3.1943,-3.1943,-3.1927,-3.192,-3.1921,-3.1923,-3.1915,-3.1913,-3.1913,-3.1911,-3.1897,-3.1893,-3.1897,-3.1889,-3.1897,-3.1897,-3.1896,-3.1853,-3.185,-3.1904,-3.1904,-3.1904,-3.1904,-3.1904,-3.1904,-3.1983,-3.1991,-3.1982,-3.1987,-3.198,-3.1982,-3.1979,-3.1975,-3.1969,-3.1971,-3.197,-3.196,-3.195,-3.1946,-3.1944,-3.194,-3.194,-3.1951,-3.1944,-3.1904,-3.1898,-3.1892,-3.189,-3.1951,-3.1951,-3.1987,-3.1988,-3.1988]}]]